You are listening to:
LKPR Approach - Prague, Czech Republic

LKPR 082300Z 22008KT CAVOK M00/M02 Q1008 NOSIG

If stream doesn't start automatically press the play button
If stream stops then reload player then press play